Location: Rounton
(54.4000°N, 1.3500°W)
Time: 18:22:52
(UTC+01:00)

S-56A Canister/Altair - Pass Details

Date: 10 September 2024
Orbit: 636 x 2487 km, 38.9° (Epoch: 06 October)

Event Time Altitude Azimuth Distance (km) Brightness Sun altitude
Rises 21:13:45 0° 217° (SW) 3,740 11.1 -14.6°
Reaches altitude 10° 21:16:40 10° 202° (SSW) 3,034 10.5 -14.9°
Maximum altitude 21:22:24 23° 153° (SSE) 2,635 9.8 -15.6°
Enters shadow 21:25:05 21° 131° (SE) 2,992 9.9 -16.0°
Drops below altitude 10° 21:29:57 10° 107° (ESE) 4,125 - -16.6°
Sets 21:34:46 0° 96° (E) 5,451 - -17.1°
